Location: Arborea
(39.7744°N, 8.5819°E)
Time: 00:58:49
(UTC+00:00)

Okean O Rocket - Pass Details

Date: 24 October 2021
Orbit: 623 x 644 km, 98.2° (Epoch: 06 December)

Event Time Altitude Azimuth Distance (km) Brightness Sun altitude
Rises 17:32:21 0° 161° (SSE) 2,889 4.9 -11.9°
Reaches altitude 10° 17:34:31 10° 159° (SSE) 1,988 4.0 -12.4°
Maximum altitude 17:38:50 73° 75° (ENE) 658 1.5 -13.2°
Drops below altitude 10° 17:43:11 10° 351° (N) 2,010 4.2 -14.0°
Sets 17:45:23 0° 350° (N) 2,924 5.1 -14.4°
